ON7AMI-5 Weather Reports


time (UTC)temp
C
wind
direction
speed
KPH
gust
KPH
rain 1hr
cm
rain 24hr
cm
rain mn
cm
humidity
%
barometer
mb
20260506195531 11 9 1.6 6.4 0.00 0.03 0.03 86 1013.2
20260506195036 11 292 0.0 3.2 0.00 0.03 0.03 86 1013.2
20260506194535 12 24 0.0 3.2 0.00 0.03 0.03 86 1013.1
20260506194030 12 94 1.6 6.4 0.00 0.03 0.03 87 1013.1
20260506193536 12 173 6.4 19.3 0.00 0.03 0.03 87 1013.0
20260506193035 12 16 4.8 12.9 0.00 0.03 0.03 87 1013.0
20260506192536 12 64 0.0 0.0 0.00 0.03 0.03 87 1013.0
20260506192035 12 357 1.6 6.4 0.00 0.03 0.03 87 1012.9
20260506191535 12 357 8.0 12.9 0.00 0.03 0.03 87 1012.9
20260506191035 12 32 3.2 9.7 0.00 0.03 0.03 87 1012.9
20260506190535 12 315 6.4 12.9 0.00 0.03 0.03 87 1012.8
20260506190035 12 336 8.0 12.9 0.00 0.03 0.03 87 1012.8
20260506185535 12 332 8.0 12.9 0.00 0.03 0.03 87 1012.5
20260506185035 12 331 11.3 19.3 0.00 0.03 0.03 87 1012.5
20260506184536 12 316 9.7 16.1 0.00 0.03 0.03 87 1012.5
20260506184035 12 312 8.0 16.1 0.00 0.03 0.03 87 1012.5
20260506183535 12 356 6.4 9.7 0.00 0.03 0.03 87 1012.4
20260506183035 12 326 9.7 16.1 0.00 0.03 0.03 87 1012.4
20260506182536 12 311 8.0 12.9 0.00 0.03 0.03 87 1012.3
20260506182035 13 356 4.8 16.1 0.00 0.03 0.03 87 1012.3
20260506181535 13 335 4.8 12.9 0.00 0.03 0.03 87 1012.3
20260506181036 13 329 12.9 19.3 0.00 0.03 0.03 87 1012.2
20260506180535 13 349 17.7 29.0 0.00 0.03 0.03 87 1012.1
20260506180036 13 326 12.9 25.7 0.00 0.03 0.03 87 1012.2
20260506175537 13 338 9.7 22.5 0.00 0.03 0.03 87 1012.1
20260506175037 13 351 9.7 19.3 0.00 0.03 0.03 87 1012.0
20260506174537 13 335 12.9 22.5 0.00 0.03 0.03 87 1011.8
20260506174035 13 340 14.5 22.5 0.00 0.03 0.03 87 1011.7
20260506173536 14 353 16.1 25.7 0.00 0.03 0.03 86 1011.7
20260506173035 14 331 9.7 16.1 0.00 0.03 0.03 86 1011.6
20260506172535 15 347 20.9 32.2 0.00 0.03 0.03 87 1011.5
20260506172035 15 355 14.5 25.7 0.00 0.03 0.03 87 1011.4
20260506171536 15 328 12.9 22.5 0.00 0.03 0.03 87 1011.3
20260506171030 15 11 14.5 22.5 0.00 0.03 0.03 87 1011.2
20260506170536 15 338 30.6 48.3 0.00 0.03 0.03 87 1011.2
20260506170035 15 342 14.5 22.5 0.00 0.03 0.03 87 1011.2
20260506165536 15 350 17.7 32.2 0.00 0.03 0.03 87 1011.2
20260506165035 15 2 25.7 41.8 0.00 0.03 0.03 87 1011.1
20260506164535 15 7 19.3 29.0 0.00 0.03 0.03 87 1011.1
20260506164036 15 350 19.3 32.2 0.00 0.03 0.03 87 1011.1
20260506163535 15 350 20.9 41.8 0.00 0.03 0.03 87 1011.2
20260506163035 15 14 25.7 48.3 0.00 0.03 0.03 87 1011.2
20260506162535 16 13 11.3 19.3 0.00 0.03 0.03 87 1011.1
20260506162035 16 345 19.3 32.2 0.00 0.03 0.03 87 1011.1
20260506161529 16 0 27.4 41.8 0.00 0.03 0.03 87 1011.2
20260506161035 16 359 30.6 45.1 0.00 0.03 0.03 87 1011.1
20260506160536 16 3 22.5 32.2 0.00 0.03 0.03 87 1011.1
20260506160030 16 10 20.9 45.1 0.00 0.03 0.03 88 1011.0
20260506155535 16 359 17.7 35.4 0.00 0.03 0.03 88 1011.0
20260506155035 16 11 32.2 45.1 0.00 0.03 0.03 88 1010.9
20260506154529 16 13 27.4 38.6 0.00 0.03 0.03 88 1010.9
20260506154036 15 12 20.9 41.8 0.00 0.03 0.03 88 1010.9
20260506153535 15 357 25.7 38.6 0.00 0.03 0.03 88 1010.9
20260506153028 15 11 20.9 32.2 0.00 0.03 0.03 88 1011.0
20260506152535 15 20 25.7 38.6 0.00 0.03 0.03 89 1011.1
20260506152035 16 2 17.7 32.2 0.00 0.03 0.03 89 1011.1
20260506151535 16 8 22.5 32.2 0.00 0.03 0.03 89 1010.9
20260506151036 16 5 24.1 35.4 0.00 0.03 0.03 89 1010.9
20260506150535 16 17 17.7 29.0 0.00 0.03 0.03 89 1010.9
20260506150035 17 4 14.5 25.7 0.00 0.03 0.03 89 1010.9
20260506145535 16 5 17.7 29.0 0.00 0.03 0.03 89 1010.9
20260506145036 16 359 17.7 29.0 0.00 0.03 0.03 89 1010.9
20260506144535 16 7 24.1 35.4 0.00 0.03 0.03 90 1010.8
20260506144035 16 26 22.5 32.2 0.00 0.03 0.03 90 1010.8
20260506143535 16 15 20.9 38.6 0.00 0.03 0.03 90 1010.8
20260506143035 16 24 14.5 29.0 0.00 0.03 0.03 90 1010.8
20260506142536 15 13 16.1 29.0 0.00 0.03 0.03 90 1010.8
20260506142035 15 18 27.4 35.4 0.00 0.03 0.03 91 1010.8
20260506141535 16 356 14.5 25.7 0.00 0.03 0.03 91 1010.8
20260506141035 15 2 17.7 25.7 0.00 0.03 0.03 91 1010.8
20260506140535 15 22 14.5 25.7 0.00 0.03 0.03 91 1010.8
20260506140034 15 32 16.1 29.0 0.00 0.03 0.03 91 1010.8
20260506135535 16 7 30.6 41.8 0.00 0.03 0.03 91 1010.9
20260506135036 16 20 14.5 22.5 0.00 0.03 0.03 91 1010.9
20260506134535 16 3 22.5 35.4 0.00 0.03 0.03 91 1010.8
20260506134036 16 341 20.9 29.0 0.00 0.03 0.03 91 1011.0
20260506133536 15 17 20.9 32.2 0.00 0.03 0.03 92 1011.1
20260506133035 15 33 16.1 25.7 0.00 0.03 0.03 92 1011.1
20260506132536 15 11 22.5 29.0 0.00 0.03 0.03 92 1011.1
20260506132035 15 359 9.7 16.1 0.00 0.03 0.03 92 1011.1
20260506131536 15 3 29.0 41.8 0.00 0.03 0.03 92 1011.1
20260506131035 15 4 9.7 16.1 0.00 0.03 0.03 92 1011.1
20260506130531 14 17 24.1 32.2 0.00 0.03 0.03 92 1011.1
20260506130035 14 359 8.0 16.1 0.00 0.03 0.03 92 1011.1
20260506125535 14 10 20.9 29.0 0.00 0.03 0.03 93 1011.0
20260506125035 13 355 4.8 16.1 0.00 0.03 0.03 93 1011.0
20260506124536 13 355 14.5 22.5 0.00 0.03 0.03 93 1011.1
20260506124035 13 3 20.9 25.7 0.00 0.03 0.03 93 1011.1
20260506123535 13 8 17.7 29.0 0.00 0.03 0.03 93 1011.0
20260506123035 13 1 11.3 25.7 0.00 0.03 0.03 93 1010.9
20260506122535 15 334 12.9 22.5 0.00 0.03 0.03 93 1010.9
20260506122028 15 11 14.5 22.5 0.00 0.03 0.03 93 1011.0
20260506121535 14 350 16.1 22.5 0.00 0.03 0.03 93 1011.0
20260506121035 14 10 19.3 25.7 0.00 0.03 0.03 93 1011.0
20260506120528 13 21 19.3 25.7 0.00 0.03 0.03 93 1011.0
20260506120035 13 14 12.9 22.5 0.00 0.03 0.03 93 1011.0
20260506115530 13 4 14.5 29.0 0.00 0.03 0.03 94 1011.0
20260506115036 13 14 19.3 29.0 0.00 0.03 0.03 94 1011.0
20260506114536 14 11 19.3 25.7 0.00 0.03 0.03 94 1011.1
20260506114036 14 31 14.5 19.3 0.00 0.03 0.03 94 1011.0
20260506113529 14 15 17.7 25.7 0.00 0.03 0.03 94 1011.0
20260506113035 13 352 14.5 22.5 0.00 0.03 0.03 94 1011.0
20260506112536 13 16 11.3 19.3 0.00 0.03 0.03 94 1011.0
20260506112028 13 354 24.1 32.2 0.00 0.03 0.03 94 1011.0
20260506111535 14 349 12.9 29.0 0.00 0.03 0.03 94 1011.1
20260506111035 14 25 22.5 32.2 0.00 0.03 0.03 94 1011.0
20260506110536 13 351 24.1 35.4 0.00 0.03 0.03 95 1011.1
20260506110036 13 10 12.9 22.5 0.00 0.03 0.03 95 1011.1
20260506105535 14 9 19.3 25.7 0.00 0.03 0.03 95 1011.1
20260506105035 13 19 19.3 35.4 0.00 0.03 0.03 95 1011.0
20260506104535 13 10 22.5 35.4 0.00 0.03 0.03 95 1011.0
20260506104035 13 350 16.1 22.5 0.00 0.03 0.03 95 1011.0
20260506103535 13 26 14.5 25.7 0.00 0.03 0.03 95 1011.0
20260506103040 12 0 16.1 32.2 0.00 0.03 0.03 95 1011.1
20260506102535 12 2 17.7 25.7 0.00 0.03 0.03 95 1011.3
20260506102036 12 340 9.7 16.1 0.00 0.03 0.03 95 1011.2
20260506101535 12 353 11.3 16.1 0.00 0.03 0.03 95 1011.1
20260506101036 12 347 14.5 19.3 0.00 0.03 0.03 95 1011.0
20260506100536 11 349 16.1 22.5 0.00 0.03 0.03 96 1011.0
20260506100035 11 2 19.3 29.0 0.00 0.03 0.03 96 1011.0
20260506095535 11 347 14.5 22.5 0.00 0.03 0.03 96 1011.0
20260506095035 11 354 8.0 12.9 0.00 0.03 0.03 96 1010.9
20260506094535 11 2 9.7 22.5 0.00 0.03 0.03 96 1010.9
20260506094036 11 350 9.7 16.1 0.00 0.03 0.03 96 1010.9
20260506093535 11 15 12.9 19.3 0.00 0.03 0.03 96 1010.9
20260506093044 10 0 6.4 12.9 0.00 0.03 0.03 96 1010.8
20260506092535 10 1 17.7 22.5 0.00 0.03 0.03 95 1010.9
20260506092036 10 4 9.7 16.1 0.00 0.03 0.03 95 1011.0
20260506091535 10 0 6.4 19.3 0.03 0.03 0.03 95 1011.0
20260506091035 10 14 16.1 25.7 0.03 0.03 0.03 95 1010.9
20260506090536 10 0 8.0 16.1 0.03 0.03 0.03 95 1010.9
20260506090036 10 352 14.5 22.5 0.03 0.03 0.03 95 1010.8
20260506085529 10 1 14.5 22.5 0.03 0.03 0.03 95 1010.8
20260506085040 10 1 4.8 16.1 0.03 0.03 0.03 95 1010.8
20260506084535 10 4 4.8 12.9 0.00 0.00 0.00 95 1010.8
20260506084035 9 26 17.7 29.0 0.00 0.00 0.00 95 1010.8
20260506083535 9 8 22.5 29.0 0.00 0.00 0.00 95 1010.7
20260506083036 9 358 19.3 32.2 0.00 0.00 0.00 94 1010.7
20260506082528 9 11 17.7 29.0 0.00 0.00 0.00 94 1010.6
20260506082035 9 22 20.9 29.0 0.00 0.00 0.00 94 1010.6
20260506081535 9 8 9.7 16.1 0.00 0.00 0.00 94 1010.6
20260506081035 10 7 16.1 22.5 0.00 0.00 0.00 94 1010.6
20260506080536 10 13 12.9 22.5 0.00 0.00 0.00 94 1010.6
20260506073035 9 3 17.7 29.0 0.00 0.00 0.00 93 1010.3
20260506072534 9 21 11.3 16.1 0.00 0.00 0.00 93 1010.3
20260506072028 10 17 14.5 22.5 0.00 0.00 0.00 93 1010.2
20260506071534 10 10 6.4 9.7 0.00 0.00 0.00 93 1010.2
20260506071028 10 2 12.9 19.3 0.00 0.00 0.00 93 1010.1
20260506070534 10 21 22.5 32.2 0.00 0.00 0.00 93 1010.1
20260506062035 10 14 16.1 25.7 0.00 0.00 0.00 92 1009.9
20260506061535 10 10 6.4 12.9 0.00 0.00 0.00 92 1009.9
20260506061035 10 355 11.3 16.1 0.00 0.00 0.00 92 1009.9
20260506060535 10 5 11.3 16.1 0.00 0.00 0.00 92 1009.9
20260506051035 8 4 9.7 19.3 0.00 0.00 0.00 92 1009.9
20260506050534 8 355 6.4 12.9 0.00 0.00 0.00 92 1010.0
20260506045035 8 0 9.7 19.3 0.00 0.00 0.00 92 1010.0
20260506044535 8 352 8.0 12.9 0.00 0.00 0.00 92 1010.0
20260506044034 8 2 4.8 9.7 0.00 0.00 0.00 92 1010.0
20260506043535 8 3 6.4 9.7 0.00 0.00 0.00 92 1009.9
20260506043035 8 352 9.7 12.9 0.00 0.00 0.00 92 1009.9
20260506042534 8 359 8.0 12.9 0.00 0.00 0.00 92 1009.9
20260506042035 8 357 11.3 19.3 0.00 0.00 0.00 92 1009.9
20260506041532 8 356 6.4 16.1 0.00 0.00 0.00 92 1009.9
20260506041033 8 0 8.0 12.9 0.00 0.00 0.00 92 1009.9
20260506040533 8 358 8.0 16.1 0.00 0.00 0.00 92 1009.9
20260506040027 8 359 9.7 16.1 0.00 0.00 0.00 92 1010.0
20260506035533 8 359 4.8 9.7 0.00 0.00 0.00 92 1010.0
20260506035033 8 9 8.0 12.9 0.00 0.00 0.00 92 1010.0
20260506034526 8 13 8.0 12.9 0.00 0.00 0.00 92 1010.0
20260506034034 8 4 9.7 22.5 0.00 0.00 0.00 92 1010.1
20260506033533 8 0 8.0 12.9 0.00 0.00 0.00 92 1010.0
20260506033027 8 6 9.7 12.9 0.00 0.00 0.00 92 1010.0
20260506032533 8 357 6.4 12.9 0.00 0.00 0.00 92 1010.0
20260506032033 8 10 6.4 12.9 0.00 0.00 0.00 92 1010.0
20260506031533 8 0 8.0 12.9 0.00 0.00 0.00 92 1010.1
20260506031033 8 0 8.0 12.9 0.00 0.00 0.00 92 1010.1
20260506030533 8 5 9.7 12.9 0.00 0.00 0.00 92 1010.2
20260506030034 8 359 11.3 16.1 0.00 0.00 0.00 92 1010.2
20260506025533 8 357 8.0 16.1 0.00 0.00 0.00 92 1010.3
20260506025033 8 0 9.7 19.3 0.00 0.00 0.00 92 1010.3
20260506024533 8 350 8.0 16.1 0.00 0.00 0.00 92 1010.3
20260506024033 8 347 8.0 16.1 0.00 0.00 0.00 92 1010.3
20260506023533 8 5 9.7 19.3 0.00 0.00 0.00 92 1010.3
20260506023033 8 13 12.9 22.5 0.00 0.00 0.00 92 1010.3
20260506022533 8 11 14.5 22.5 0.00 0.00 0.00 92 1010.3
20260506022033 8 13 12.9 22.5 0.00 0.00 0.00 92 1010.3
20260506021533 8 13 17.7 29.0 0.00 0.00 0.00 92 1010.3
20260506021033 8 22 14.5 25.7 0.00 0.00 0.00 92 1010.3
20260506020533 8 5 12.9 19.3 0.00 0.00 0.00 92 1010.4
20260506020027 8 13 12.9 22.5 0.00 0.00 0.00 92 1010.4
20260506015533 8 14 16.1 22.5 0.00 0.00 0.00 92 1010.4
20260506015033 8 9 9.7 16.1 0.00 0.00 0.00 92 1010.4
20260506014534 8 12 12.9 22.5 0.00 0.00 0.00 92 1010.4
20260506014033 8 13 12.9 16.1 0.00 0.00 0.00 92 1010.5
20260506013533 8 5 12.9 19.3 0.00 0.00 0.00 92 1010.5
20260506013033 8 8 14.5 22.5 0.00 0.00 0.00 92 1010.5
20260506012537 8 351 9.7 22.5 0.00 0.00 0.00 92 1010.4
20260506012033 8 357 8.0 19.3 0.00 0.00 0.00 92 1010.4
20260506011533 8 26 11.3 16.1 0.00 0.00 0.00 92 1010.4
20260506011033 8 8 14.5 19.3 0.00 0.00 0.00 92 1010.4
20260506010533 9 14 12.9 19.3 0.00 0.00 0.00 92 1010.3
20260506010033 9 18 20.9 29.0 0.00 0.00 0.00 92 1010.4
20260506005526 9 5 9.7 16.1 0.00 0.00 0.00 92 1010.4
20260506005031 9 20 12.9 22.5 0.00 0.00 0.00 92 1010.5
20260506004533 9 4 11.3 19.3 0.00 0.00 0.00 92 1010.5
20260506004034 9 23 16.1 22.5 0.00 0.00 0.00 92 1010.5
20260506003527 9 8 11.3 16.1 0.00 0.00 0.00 92 1010.6
20260506003033 9 17 14.5 19.3 0.00 0.00 0.00 92 1010.6
20260506002534 9 4 12.9 19.3 0.00 0.00 0.00 92 1010.6
20260506002027 9 24 14.5 22.5 0.00 0.00 0.00 92 1010.7
20260506001533 9 10 11.3 19.3 0.00 0.00 0.00 92 1010.7
20260506001033 10 12 14.5 22.5 0.00 0.00 0.00 92 1010.7
20260506000526 10 15 12.9 19.3 0.00 0.00 0.00 92 1010.7
20260506000032 10 358 0.0 3.2 0.00 0.00 0.00 92 1010.7
20260505235528 10 23 14.5 22.5 0.00 0.00 0.00 92 1010.7
20260505235031 10 22 8.0 19.3 0.00 0.00 0.00 92 1010.7
20260505234535 10 37 11.3 19.3 0.00 0.00 0.00 92 1010.7
20260505234030 10 29 20.9 32.2 0.00 0.00 0.00 92 1010.7
20260505233529 10 23 11.3 19.3 0.00 0.00 0.00 92 1010.7
20260505233034 10 35 11.3 16.1 0.00 0.00 0.00 92 1010.7
20260505232535 10 37 14.5 29.0 0.00 0.00 0.00 92 1010.7
20260505232028 10 38 14.5 22.5 0.00 0.00 0.00 92 1010.7
20260505231535 10 24 12.9 22.5 0.00 0.00 0.00 92 1010.7
20260505231028 10 14 11.3 29.0 0.00 0.00 0.00 92 1010.7
20260505230534 10 39 8.0 12.9 0.00 0.00 0.00 92 1010.8
20260505230034 10 33 11.3 19.3 0.00 0.00 0.00 92 1010.8
20260505225531 10 38 17.7 29.0 0.00 0.00 0.00 92 1010.8
20260505225035 10 16 3.2 9.7 0.00 0.00 0.00 92 1010.8
20260505224535 10 40 8.0 22.5 0.00 0.00 0.00 92 1010.8
20260505224039 10 21 6.4 12.9 0.00 0.00 0.00 92 1010.8
20260505223538 10 13 0.0 3.2 0.00 0.00 0.00 92 1010.8
20260505223039 10 26 0.0 3.2 0.00 0.00 0.00 92 1010.8
20260505222539 10 29 4.8 12.9 0.00 0.00 0.00 92 1010.8
20260505222039 10 42 3.2 12.9 0.00 0.00 0.00 92 1010.8
20260505221539 11 61 8.0 16.1 0.00 0.00 0.00 92 1010.8
20260505221039 11 0 4.8 16.1 0.00 0.00 0.00 92 1010.9
20260505220529 11 43 9.7 12.9 0.00 0.00 0.00 92 1010.9
20260505220031 11 36 6.4 22.5 0.00 0.00 0.00 92 1010.9
20260505215535 11 33 11.3 16.1 0.00 0.00 0.00 92 1010.9
20260505215035 11 39 9.7 22.5 0.00 0.00 0.00 92 1010.9
20260505214535 11 37 12.9 22.5 0.00 0.00 0.00 92 1010.9
20260505214034 11 21 4.8 9.7 0.00 0.00 0.00 92 1010.9
20260505213535 11 22 11.3 16.1 0.00 0.00 0.00 92 1010.9
20260505213043 11 16 9.7 16.1 0.00 0.00 0.00 92 1010.9
20260505212535 11 30 14.5 22.5 0.00 0.00 0.00 92 1011.0
20260505212035 11 17 9.7 16.1 0.00 0.00 0.00 92 1010.9
20260505211535 11 31 12.9 19.3 0.00 0.00 0.00 92 1011.0
20260505211035 11 26 14.5 25.7 0.00 0.00 0.00 92 1011.0
20260505210535 11 27 17.7 25.7 0.00 0.00 0.00 92 1010.9
20260505210035 11 16 17.7 29.0 0.00 0.00 0.00 92 1010.9
20260505205535 11 24 11.3 25.7 0.00 0.00 0.00 92 1011.0
20260505205035 11 31 20.9 32.2 0.00 0.00 0.00 92 1011.0
20260505204535 11 21 25.7 38.6 0.00 0.00 0.00 92 1011.0
20260505204036 11 25 19.3 29.0 0.00 0.00 0.00 92 1010.9
20260505203535 11 28 17.7 25.7 0.00 0.00 0.00 92 1010.9
20260505203035 11 18 16.1 22.5 0.00 0.00 0.00 92 1010.9
20260505202535 11 11 19.3 32.2 0.00 0.00 0.00 92 1010.9
20260505202036 11 25 17.7 22.5 0.00 0.00 0.00 92 1010.9
20260505201535 11 19 14.5 19.3 0.00 0.00 0.00 92 1010.9
20260505201035 11 17 14.5 22.5 0.00 0.00 0.00 92 1010.9
20260505200535 11 29 12.9 19.3 0.00 0.00 0.00 92 1010.8
20260505200034 11 22 19.3 32.2 0.00 0.00 0.00 92 1010.8